Regional Weather Roundup
Issued by NWS Upton, NY

Current Version | Previous Version | Text Only | Print | Product List | Glossary On
Versions: 1 2 3 4 5 6 7 8 9 10 11 12 13 14 15 16 17 18 19 20 21 22 23 24 25 26 27 28 29 30 31 32 33 34 35 36 37 38 39 40 41 42 43 44 45 46 47 48 49 50
000
ASUS41 KOKX 231508
RWROKX

REGIONAL WEATHER ROUNDUP
NATIONAL WEATHER SERVICE NEW YORK NY
1000 AM EST THU FEB 23 2017

NOTE: "FAIR" INDICATES FEW OR NO CLOUDS BELOW 12,000 FEET WITH NO
SIGNIFICANT WEATHER AND/OR OBSTRUCTIONS TO VISIBILITY.

NYZ071-072-176-178-NJZ106-104-231600-
NEW YORK CITY METRO AREA

CITY           SKY/WX    TMP DP  RH WIND       PRES   REMARKS
Central Park   CLOUDY    52  47  83 W5        29.92F
Wall St Helipt NOT AVBL
LaGuardia APRT CLOUDY    52  47  83 SW6       29.90F FOG
Kennedy INTL   DRZL/FOG  47  47 100 S6        29.93S VSB 1/4
Breezy Point     N/A     45 N/A N/A S1          N/A
Newark/Liberty PTSUNNY   48  48 100 S5        29.91S FOG
Teterboro      CLOUDY    50  45  83 VRB6      29.90F
$$

NYZ177-179-078>081-231600-
LONG ISLAND NEW YORK

CITY           SKY/WX    TMP DP  RH WIND       PRES   REMARKS
Jones Beach      N/A     43 N/A N/A SW5         N/A
Matinecock PT  NOT AVBL
Farmingdale    CLOUDY    46  46 100 SW5       29.92S FOG
MacArthur/ISP  CLOUDY    47  47 100 SW6       29.91F FOG
Shirley        FOG       47  47 100 SW6       29.93R VSB 1/4
Westhampton    FOG       46  44  93 SW8       29.94R VSB 1/4
Southampton      N/A     45  43  93 SW3       29.90S
Bridgehampton  NOT AVBL
East Hampton   FOG       47  47  99 SW8       29.91S VSB 1/2
Montauk          N/A     50  47  89 S7        29.92S
$$

NYZ052-065-067-231600-
HUDSON VALLEY

CITY           SKY/WX    TMP DP  RH WIND       PRES   REMARKS
White Plains   PTSUNNY   50  43  77 S3        29.88F HAZE
Newburgh       SUNNY     54  45  71 CALM      29.87F
Montgomery     SUNNY     53  44  71 S8        29.84F
Poughkeepsie   SUNNY     54  41  61 SW5       29.85F
Albany         MOSUNNY   52  39  61 S12       29.81F
$$

NJZ001-105-106-008-010-013-015-019>022-104-231600-
NEW JERSEY

CITY           SKY/WX    TMP DP  RH WIND       PRES   REMARKS
Newark/Liberty PTSUNNY   48  48 100 S5        29.91S FOG
Teterboro      CLOUDY    50  45  83 VRB6      29.90F
Caldwell       CLOUDY    51  45  79 S5        29.90F
Somerville     FOG       46  45  96 CALM      29.89S VSB 3/4
Linden         NOT AVBL
Sussex         SUNNY     52  44  74 SW7       29.86F
Andover          N/A     52  44  74 CALM      29.87F
Trenton        FOG       51  51 100 S5        29.90S VSB 1
Millville      SUNNY     61  54  77 SW7       29.92S
Atlantic City  SUNNY     62  51  67 SW7       29.92S
Wrightstown    CLOUDY    53  53  99 SW7       29.89S
Toms River     PTSUNNY   58  53  84 SW13      29.91F
Belmar         CLOUDY    54  53  97 W9        29.92S
$$

PAZ047>061-062-071-231600-
EASTERN PENNSYLVANIA

CITY           SKY/WX    TMP DP  RH WIND       PRES   REMARKS
Philadelphia   CLOUDY    53  52  96 SW7       29.92S FOG
Allentown      CLOUDY    46  42  86 CALM      29.90R HAZE
Scranton       SUNNY     53  42  66 W6        29.85R
$$

CTZ002-004>006-009-010-012-RIZ004-006-007-MAZ004-011-015-231600-
SOUTHERN NEW ENGLAND
 IN CT

CITY           SKY/WX    TMP DP  RH WIND       PRES   REMARKS
Bradley INTL   SUNNY     53  41  63 S7        29.88F
Hartford       SUNNY     52  43  71 S6        29.89S
Danbury        SUNNY     54  44  69 CALM      29.89F
Wtrbury/Oxford SUNNY     54  41  62 SW5       29.91S
Bridgeport     PTSUNNY   45  40  82 S3        29.91F
Meriden        SUNNY     46  41  82 S6        29.90S
New Haven      SUNNY     44  42  93 CALM      29.91S
Chester          N/A     52  45  76 SW9       29.90R
Groton         SUNNY     45  43  93 SW5       29.91S
Wilimantic     SUNNY     52  40  63 CALM      29.90F

 IN RI

CITY           SKY/WX    TMP DP  RH WIND       PRES   REMARKS
Providence     MOSUNNY   52  42  69 SE5       29.89F
Block Island   NOT AVBL
Westerly       SUNNY     49  43  80 SW6       29.92S
 IN MA

CITY           SKY/WX    TMP DP  RH WIND       PRES   REMARKS
Boston         MOSUNNY   53  43  68 S7        29.87F
Worcester      SUNNY     55  40  56 SW14      29.86S
Westfield      SUNNY     47  37  68 S6        29.85F
Provincetown   PTSUNNY   44  42  93 S10       29.90S
Nantucket      PTSUNNY   46  43  89 SW14      29.93S
$$

ANZ330-335-338-340-345-350-353-355-231600-
COASTAL MARINE OBSERVATIONS


STATION/POSITION TIME  SKY/WX   TEMP    WIND        PRES    VSBY  WAVE
                                AIR SEA DIR/SP/G                  HT/PER
                 (UTC)          (F)     (DEG/KT/KT) (MB)    (MI)  (FT/S)
NY HARB ENTRANCE 1350            43 42  210/  6/  8 1012.9          3/11
20 S FIRE ISLAND 1350            44 43  200/  8/ 10 1013.1          3/10
GREAT SOUTH BAY  NOT AVBL
23 SSW MONTAUK P 1350            46 44              1013.7          3/ 9
15 E BARNEGAT LI 1430               43                N/A           3/11
HUDSON CANYON    1350               49              1014.1          4/11
KINGS POINT      1442            41 38              1012.6
EXECUTION ROCKS  NOT AVBL
CENTRAL LI SOUND 1400            40     220/  4/  6   N/A           0
EASTERN LI SOUND NOT AVBL
ROBBINS REEF     1442            44     110/  3/  4 1013.2
$$


>>>>>>>>>>>>>>>>>>>>>>>>>>>> KEY <<<<<<<<<<<<<<<<<<<<<<<<<<<
>                                                          <
>     SKY/WX - Sky Condition/Present Weather               <
>     TMP    - Temperature in Fahrenheit                   <
>     DP     - Dew Point in Fahrenheit                     <
>     RH     - Relative Humidity in Percent                <
>     WIND   - Direction (from) and Speed in MPH           <
>     PRES   - Mean Sea Level Pressure (inches of Hg)      <
>     WCI    - Wind Chill Index                            <
>     VSB    - VISIBILITY IN MILES                         <
>     HX     - HEAT INDEX                                  <
>     TC     - TEMPERATURE IN CELSIUS                      <
>     VRB    - VARIABLE WIND DIRECTION                     <
>                                                          <
>>>>>>>>>>>>>>>>>>>>>>>>>>>> KEY <<<<<<<<<<<<<<<<<<<<<<<<<<<



USA.gov is the U.S. government's official web portal to all federal, state and local government web resources and services.